FW0394 Weather Reports


Display with metric or nautical units.
time (UTC)temp
F
wind
direction
speed
MPH
gust
MPH
rain 1hr
in
rain 24hr
in
rain mn
in
humidity
%
barometer
mb
20260508153503 66 180 2.0 5.0 0.00 0.01 0.01 48 1008.4
20260508153003 65 174 2.0 6.0 0.00 0.01 0.01 46 1008.4
20260508152503 65 154 2.0 6.0 0.00 0.01 0.01 50 1008.4
20260508152003 64 145 2.0 4.0 0.00 0.01 0.01 50 1008.5
20260508151503 64 147 2.0 4.0 0.00 0.01 0.01 52 1008.5
20260508151003 63 147 2.0 5.0 0.00 0.01 0.01 53 1008.5
20260508150503 62 151 2.0 5.0 0.00 0.01 0.01 54 1008.6
20260508150004 62 151 2.0 5.0 0.00 0.01 0.01 52 1008.6
20260508145503 61 142 2.0 5.0 0.00 0.01 0.01 51 1008.5
20260508145213 61 136 2.0 4.0 0.00 0.01 0.01 56 1008.5
20260508144503 61 140 2.0 5.0 0.00 0.01 0.01 53 1008.4
20260508144003 61 152 2.0 5.0 0.00 0.01 0.01 52 1008.6
20260508143503 60 164 2.0 5.0 0.00 0.01 0.01 54 1008.6
20260508143003 60 168 2.0 5.0 0.00 0.01 0.01 54 1008.7
20260508142503 60 170 2.0 5.0 0.00 0.01 0.01 55 1008.7
20260508142003 59 177 2.0 5.0 0.00 0.01 0.01 55 1008.7
20260508141713 59 178 3.0 5.0 0.00 0.01 0.01 55 1008.7
20260508141003 58 165 3.0 5.0 0.00 0.01 0.01 57 1008.7
20260508140503 58 152 2.0 5.0 0.00 0.01 0.01 55 1008.8
20260508140003 57 82 2.0 5.0 0.00 0.01 0.01 62 1008.7
20260508135503 56 53 1.0 4.0 0.00 0.01 0.01 62 1008.7
20260508135003 55 0 0.0 1.0 0.00 0.01 0.01 65 1008.7
20260508134503 54 0 0.0 1.0 0.00 0.01 0.01 67 1008.7
20260508134003 54 0 0.0 0.0 0.00 0.01 0.01 71 1008.7
20260508133503 54 0 0.0 0.0 0.00 0.01 0.01 72 1008.7
20260508133004 54 0 0.0 0.0 0.00 0.01 0.01 71 1008.7
20260508132503 54 38 0.0 2.0 0.00 0.01 0.01 71 1008.8
20260508132003 54 38 0.0 2.0 0.00 0.01 0.01 70 1008.7
20260508131503 53 38 0.0 2.0 0.00 0.01 0.01 72 1008.7
20260508131003 53 38 0.0 2.0 0.00 0.01 0.01 72 1008.7
20260508130503 53 0 0.0 0.0 0.00 0.01 0.01 71 1008.6
20260508130004 53 0 0.0 0.0 0.00 0.01 0.01 72 1008.4
20260508125503 53 0 0.0 0.0 0.00 0.01 0.01 70 1008.5
20260508125214 53 0 0.0 0.0 0.00 0.01 0.01 69 1008.3
20260508124503 53 0 0.0 0.0 0.00 0.01 0.01 69 1008.2
20260508124003 53 0 0.0 0.0 0.00 0.01 0.01 68 1008.3
20260508123503 53 0 0.0 0.0 0.00 0.01 0.01 68 1008.2
20260508123004 53 38 0.0 1.0 0.00 0.01 0.01 66 1008.3
20260508122503 53 38 1.0 2.0 0.00 0.01 0.01 67 1008.3
20260508122003 53 38 1.0 2.0 0.00 0.01 0.01 67 1008.3
20260508121503 53 37 1.0 4.0 0.00 0.01 0.01 66 1008.4
20260508121003 53 37 1.0 4.0 0.00 0.01 0.01 68 1008.4
20260508120503 53 37 1.0 3.0 0.00 0.01 0.01 66 1008.3
20260508120003 53 37 0.0 2.0 0.00 0.01 0.01 65 1008.4
20260508115503 53 37 1.0 3.0 0.00 0.01 0.01 62 1008.4
20260508115003 52 37 2.0 3.0 0.00 0.01 0.01 63 1008.5
20260508114503 52 37 1.0 3.0 0.00 0.01 0.01 61 1008.6
20260508114003 52 38 1.0 3.0 0.00 0.01 0.01 61 1008.4
20260508113503 51 0 0.0 0.0 0.00 0.01 0.01 62 1008.5
20260508113213 51 0 0.0 0.0 0.00 0.01 0.01 60 1008.4
20260508112503 51 0 0.0 1.0 0.00 0.01 0.01 61 1008.4
20260508112003 51 0 0.0 0.0 0.00 0.01 0.01 65 1008.3
20260508111503 51 0 0.0 0.0 0.00 0.01 0.01 59 1008.3
20260508111003 51 37 0.0 1.0 0.00 0.01 0.01 59 1008.4
20260508110503 51 37 0.0 1.0 0.00 0.01 0.01 61 1008.4
20260508110003 51 0 0.0 1.0 0.00 0.01 0.01 61 1008.4
20260508105503 51 38 0.0 1.0 0.00 0.01 0.01 57 1008.3
20260508105003 52 38 1.0 2.0 0.00 0.01 0.01 61 1008.4
20260508104714 52 38 1.0 2.0 0.00 0.01 0.01 60 1008.4
20260508104003 52 38 0.0 1.0 0.00 0.01 0.01 57 1008.5
20260508103503 52 0 0.0 0.0 0.01 0.01 0.01 54 1008.5
20260508103003 52 38 0.0 2.0 0.01 0.01 0.01 54 1008.4
20260508102503 53 37 1.0 4.0 0.01 0.01 0.01 55 1008.3
20260508102003 53 37 2.0 4.0 0.01 0.01 0.01 56 1008.6
20260508101503 52 44 2.0 8.0 0.01 0.01 0.01 55 1008.8
20260508101003 52 50 1.0 8.0 0.01 0.01 0.01 57 1008.9
20260508100503 52 83 0.0 2.0 0.01 0.01 0.01 59 1008.7
20260508100004 52 0 0.0 0.0 0.01 0.01 0.01 60 1008.8
20260508095504 52 0 0.0 0.0 0.01 0.01 0.01 60 1008.8
20260508095003 52 83 0.0 2.0 0.01 0.01 0.01 56 1008.8
20260508094503 52 83 0.0 2.0 0.01 0.01 0.01 60 1008.8
20260508094212 52 83 1.0 3.0 0.01 0.01 0.01 60 1008.7
20260508093503 52 83 1.0 3.0 0.00 0.00 0.00 56 1008.9
20260508093003 53 83 1.0 2.0 0.00 0.00 0.00 59 1008.9
20260508092503 53 84 1.0 4.0 0.00 0.00 0.00 56 1008.8
20260508092212 53 84 1.0 4.0 0.00 0.00 0.00 56 1008.8
20260508091503 53 0 0.0 0.0 0.00 0.00 0.00 57 1008.7
20260508091003 53 0 0.0 0.0 0.00 0.00 0.00 58 1008.8
20260508090503 54 0 0.0 0.0 0.00 0.00 0.00 56 1008.8
20260508090003 54 0 0.0 0.0 0.00 0.00 0.00 57 1008.8
20260508085503 54 0 0.0 0.0 0.00 0.00 0.00 57 1008.8
20260508085003 54 0 0.0 0.0 0.00 0.00 0.00 59 1009.0
20260508084503 55 0 0.0 0.0 0.00 0.00 0.00 57 1008.9
20260508084003 55 0 0.0 0.0 0.00 0.00 0.00 57 1008.7
20260508083503 55 0 0.0 0.0 0.00 0.00 0.00 61 1008.8
20260508083003 55 0 0.0 0.0 0.00 0.00 0.00 55 1009.3
20260508082713 55 0 0.0 0.0 0.00 0.00 0.00 54 1009.3
20260508082003 55 0 0.0 0.0 0.00 0.00 0.00 55 1008.9
20260508081503 55 0 0.0 0.0 0.00 0.00 0.00 56 1008.8
20260508081003 56 0 0.0 0.0 0.00 0.00 0.00 56 1008.9
20260508080503 56 0 0.0 0.0 0.00 0.00 0.00 54 1008.8
20260508080004 56 0 0.0 0.0 0.00 0.00 0.00 54 1008.9
20260508075503 56 0 0.0 0.0 0.00 0.00 0.00 54 1009.1
20260508075003 56 77 0.0 2.0 0.00 0.00 0.00 55 1009.2
20260508074713 56 77 0.0 2.0 0.00 0.00 0.00 54 1009.4
20260508074003 56 77 0.0 2.0 0.00 0.00 0.00 52 1009.4
20260508073503 56 76 0.0 2.0 0.00 0.00 0.00 50 1009.1
20260508073003 56 0 0.0 0.0 0.00 0.00 0.00 47 1009.1
20260508072503 56 77 0.0 1.0 0.00 0.00 0.00 50 1008.9
20260508072004 57 66 1.0 4.0 0.00 0.00 0.00 49 1009.0
20260508071503 57 49 2.0 5.0 0.00 0.00 0.00 49 1009.0
20260508071003 56 23 2.0 5.0 0.00 0.00 0.00 49 1008.8
20260508070503 56 13 1.0 5.0 0.00 0.00 0.00 51 1008.7
20260508070004 56 0 0.0 0.0 0.00 0.00 0.00 50 1008.9
20260508065503 56 0 0.0 0.0 0.00 0.00 0.00 49 1009.0
20260508065005 56 346 0.0 1.0 0.00 0.00 0.00 49 1009.0
20260508064504 56 346 0.0 1.0 0.00 0.00 0.00 49 1009.0
20260508064003 56 346 0.0 1.0 0.00 0.00 0.00 50 1009.1
20260508063503 56 346 0.0 1.0 0.00 0.00 0.00 51 1009.1
20260508063003 56 0 0.0 0.0 0.00 0.00 0.00 49 1009.2
20260508062503 56 0 0.0 1.0 0.00 0.00 0.00 50 1009.3
20260508062003 56 346 0.0 1.0 0.00 0.00 0.00 51 1009.3
20260508061712 56 346 0.0 2.0 0.00 0.00 0.00 50 1009.4
20260508061003 57 349 2.0 4.0 0.00 0.00 0.00 49 1009.4
20260508060714 57 349 1.0 4.0 0.00 0.00 0.00 49 1009.3
20260508060003 57 351 0.0 1.0 0.00 0.00 0.00 47 1009.0
20260508055712 57 0 0.0 1.0 0.00 0.00 0.00 44 1009.0
20260508055003 57 351 0.0 3.0 0.00 0.00 0.00 47 1009.0
20260508054503 57 351 1.0 3.0 0.00 0.00 0.00 45 1008.9
20260508054003 56 351 0.0 2.0 0.00 0.00 0.00 46 1008.8
20260508053503 56 0 0.0 1.0 0.00 0.00 0.00 52 1008.9
20260508053213 57 0 0.0 1.0 0.00 0.00 0.00 52 1008.9
20260508052714 57 0 0.0 0.0 0.00 0.00 0.00 51 1008.9
20260508052003 57 0 0.0 0.0 0.00 0.00 0.00 48 1008.8
20260508051714 57 0 0.0 0.0 0.00 0.00 0.00 48 1008.8
20260508051003 56 351 0.0 1.0 0.00 0.00 0.00 50 1008.9
20260508050503 56 351 0.0 1.0 0.00 0.00 0.00 47 1009.0
20260508050004 56 351 0.0 1.0 0.00 0.00 0.00 49 1009.0
20260508045503 56 351 0.0 2.0 0.00 0.00 0.00 50 1009.0
20260508045003 56 351 0.0 2.0 0.00 0.00 0.00 52 1009.1
20260508044504 56 0 0.0 0.0 0.00 0.00 0.00 50 1009.1
20260508044003 56 0 0.0 0.0 0.00 0.00 0.00 47 1009.2
20260508043503 56 0 0.0 0.0 0.00 0.00 0.00 45 1009.1
20260508043003 56 0 0.0 0.0 0.00 0.00 0.00 45 1009.2
20260508042503 56 0 0.0 0.0 0.00 0.00 0.00 45 1009.2
20260508042003 56 0 0.0 0.0 0.00 0.00 0.00 44 1009.2
20260508041713 56 0 0.0 0.0 0.00 0.00 0.00 45 1009.1
20260508041003 56 0 0.0 0.0 0.00 0.00 0.00 42 1009.1
20260508040503 56 0 0.0 0.0 0.00 0.00 0.00 43 1009.3
20260508040003 56 0 0.0 1.0 0.00 0.00 0.00 44 1009.3
20260508035503 56 0 0.0 1.0 0.00 0.00 0.00 43 1009.3
20260508035003 57 351 0.0 2.0 0.00 0.00 0.00 43 1009.3
20260508034503 57 351 0.0 2.0 0.00 0.00 0.00 43 1009.1
20260508034003 57 351 0.0 1.0 0.00 0.00 0.00 43 1009.1
20260508033713 57 0 0.0 0.0 0.00 0.00 0.00 45 1009.2
20260508033003 57 0 0.0 1.0 0.00 0.00 0.00 41 1009.2
20260508032503 57 0 0.0 1.0 0.00 0.00 0.00 42 1009.2
20260508032214 57 0 0.0 0.0 0.00 0.00 0.00 42 1009.2
20260508031503 57 351 0.0 1.0 0.00 0.00 0.00 40 1009.3
20260508031214 58 351 0.0 1.0 0.00 0.00 0.00 41 1009.2
20260508030503 58 0 0.0 1.0 0.00 0.00 0.00 39 1009.1
20260508030004 58 0 0.0 0.0 0.00 0.00 0.00 41 1009.1
20260508025503 59 0 0.0 0.0 0.00 0.00 0.00 46 1009.1
20260508025003 59 0 0.0 0.0 0.00 0.00 0.00 39 1009.0
20260508024503 60 0 0.0 0.0 0.00 0.00 0.00 39 1009.0
20260508024215 60 0 0.0 0.0 0.00 0.00 0.00 37 1008.9
20260508023503 61 351 0.0 2.0 0.00 0.00 0.00 38 1008.9
20260508023003 61 351 0.0 2.0 0.00 0.00 0.00 38 1008.8
20260508022503 61 0 0.0 1.0 0.00 0.00 0.00 34 1008.9
20260508022003 62 0 0.0 0.0 0.00 0.00 0.00 33 1008.8
20260508021503 62 351 0.0 1.0 0.00 0.00 0.00 33 1008.7
20260508021003 62 351 0.0 1.0 0.00 0.00 0.00 34 1008.6
20260508020503 63 351 0.0 1.0 0.00 0.00 0.00 33 1008.5
20260508020003 63 0 0.0 0.0 0.00 0.00 0.00 34 1008.3
20260508015503 64 0 0.0 0.0 0.00 0.00 0.00 32 1008.3
20260508015214 64 0 0.0 0.0 0.00 0.00 0.00 32 1008.4
20260508014712 64 351 0.0 1.0 0.00 0.00 0.00 31 1008.3
20260508014003 65 351 0.0 1.0 0.00 0.00 0.00 30 1008.4
20260508013503 66 351 0.0 1.0 0.00 0.00 0.00 29 1008.3
20260508013213 66 351 0.0 1.0 0.00 0.00 0.00 30 1008.3
20260508012503 66 347 0.0 4.0 0.00 0.00 0.00 28 1008.2
20260508012003 67 346 1.0 4.0 0.00 0.00 0.00 27 1008.2
20260508011503 67 343 1.0 4.0 0.00 0.00 0.00 27 1008.0
20260508011004 67 315 1.0 3.0 0.00 0.00 0.00 26 1008.0
20260508010503 68 311 1.0 5.0 0.00 0.00 0.00 27 1007.9
20260508010003 68 337 1.0 5.0 0.00 0.00 0.00 28 1008.0
20260508005503 68 360 1.0 3.0 0.00 0.00 0.00 27 1007.9
20260508005003 68 340 1.0 3.0 0.00 0.00 0.00 28 1007.8
20260508004213 69 326 1.0 4.0 0.00 0.00 0.00 27 1007.7
20260508003503 69 340 1.0 4.0 0.00 0.00 0.00 26 1007.7
20260508003213 69 348 1.0 4.0 0.00 0.00 0.00 27 1007.6
20260508002503 70 320 1.0 8.0 0.00 0.00 0.00 27 1007.6
20260508002003 70 307 2.0 8.0 0.00 0.00 0.00 25 1007.6
20260508001503 70 310 2.0 8.0 0.00 0.00 0.00 25 1007.7
20260508001003 70 342 1.0 6.0 0.00 0.00 0.00 28 1007.6
20260508000504 70 14 1.0 6.0 0.00 0.00 0.00 28 1007.6
20260508000003 70 1 2.0 5.0 0.00 0.00 0.00 27 1007.4
20260507235714 70 326 2.0 8.0 0.00 0.00 0.00 26 1007.5
20260507235213 71 279 3.0 8.0 0.00 0.00 0.00 25 1007.4
20260507234714 71 281 3.0 9.0 0.00 0.00 0.00 25 1007.5
20260507234003 71 320 3.0 9.0 0.00 0.00 0.00 23 1007.6
20260507233504 71 311 3.0 9.0 0.00 0.00 0.00 24 1007.6
20260507233003 72 292 2.0 9.0 0.00 0.00 0.00 25 1007.6
20260507232503 72 283 2.0 9.0 0.00 0.00 0.00 25 1007.5
20260507232003 72 281 3.0 9.0 0.00 0.00 0.00 24 1007.6
20260507231503 72 284 3.0 9.0 0.00 0.00 0.00 24 1007.5
20260507231004 72 280 3.0 10.0 0.00 0.00 0.00 26 1007.5
20260507230503 72 279 3.0 13.0 0.00 0.00 0.00 25 1007.5
20260507230003 73 283 3.0 13.0 0.00 0.00 0.00 26 1007.5
20260507225504 73 297 3.0 10.0 0.00 0.00 0.00 24 1007.5
20260507225003 73 283 3.0 10.0 0.00 0.00 0.00 22 1007.4
20260507224718 73 270 3.0 9.0 0.00 0.00 0.00 23 1007.5
20260507224003 73 268 3.0 11.0 0.00 0.00 0.00 25 1007.6
20260507223504 73 268 3.0 9.0 0.00 0.00 0.00 24 1007.5
20260507223212 73 261 3.0 9.0 0.00 0.00 0.00 27 1007.6
20260507222503 73 258 4.0 13.0 0.00 0.00 0.00 27 1007.7
20260507222004 73 270 3.0 13.0 0.00 0.00 0.00 26 1007.7
20260507221503 73 244 4.0 9.0 0.00 0.00 0.00 28 1007.6
20260507221003 73 240 5.0 11.0 0.00 0.00 0.00 27 1007.7
20260507220713 73 254 5.0 11.0 0.00 0.00 0.00 27 1007.7
20260507220214 73 272 3.0 11.0 0.00 0.00 0.00 25 1007.6
20260507215503 72 288 3.0 10.0 0.00 0.00 0.00 28 1007.6
20260507215003 73 283 3.0 10.0 0.00 0.00 0.00 26 1007.7
20260507214503 73 289 3.0 8.0 0.00 0.00 0.00 27 1007.7
20260507214003 73 294 3.0 8.0 0.00 0.00 0.00 30 1007.8
20260507213713 73 299 3.0 9.0 0.00 0.00 0.00 27 1007.7
20260507213003 73 296 4.0 11.0 0.00 0.00 0.00 29 1007.8
20260507212713 73 278 5.0 11.0 0.00 0.00 0.00 29 1007.8
20260507212003 73 261 5.0 12.0 0.00 0.00 0.00 26 1007.8
20260507211503 73 269 4.0 11.0 0.00 0.00 0.00 26 1007.9
20260507211003 73 286 3.0 11.0 0.00 0.00 0.00 24 1007.9
20260507210503 73 308 4.0 14.0 0.00 0.00 0.00 30 1007.8
20260507210005 73 314 4.0 14.0 0.00 0.00 0.00 26 1008.0
20260507205503 73 293 2.0 11.0 0.00 0.00 0.00 27 1007.9
20260507205003 74 255 3.0 13.0 0.00 0.00 0.00 29 1008.0
20260507204713 73 267 5.0 14.0 0.00 0.00 0.00 30 1008.0
20260507204003 73 292 5.0 14.0 0.00 0.00 0.00 31 1008.1
20260507203503 73 266 4.0 13.0 0.00 0.00 0.00 27 1008.1
20260507203003 73 254 4.0 12.0 0.00 0.00 0.00 33 1008.1
20260507202503 73 270 4.0 12.0 0.00 0.00 0.00 30 1008.2
20260507202003 73 279 4.0 12.0 0.00 0.00 0.00 30 1008.2
20260507201503 73 274 3.0 10.0 0.00 0.00 0.00 32 1008.2
20260507201003 73 271 3.0 10.0 0.00 0.00 0.00 33 1008.2
20260507200503 73 250 3.0 11.0 0.00 0.00 0.00 33 1008.3
20260507200003 72 251 5.0 13.0 0.00 0.00 0.00 31 1008.3
20260507195504 72 263 5.0 13.0 0.00 0.00 0.00 29 1008.2
20260507195003 71 266 3.0 14.0 0.00 0.00 0.00 34 1008.2
20260507194503 71 250 5.0 14.0 0.00 0.00 0.00 30 1008.2
20260507194003 72 246 5.0 15.0 0.00 0.00 0.00 31 1008.2
20260507193503 73 255 4.0 15.0 0.00 0.00 0.00 30 1008.2
20260507193213 73 251 5.0 12.0 0.00 0.00 0.00 33 1008.2
20260507192503 72 254 5.0 12.0 0.00 0.00 0.00 30 1008.2
20260507192003 72 265 4.0 10.0 0.00 0.00 0.00 37 1008.1
20260507191003 72 262 5.0 11.0 0.00 0.00 0.00 33 1008.2
20260507190503 72 248 5.0 13.0 0.00 0.00 0.00 34 1008.2
20260507190005 72 236 6.0 14.0 0.00 0.00 0.00 35 1008.2
20260507185503 72 232 5.0 14.0 0.00 0.00 0.00 34 1008.3
20260507185003 71 230 6.0 17.0 0.00 0.00 0.00 36 1008.3
20260507184504 72 237 8.0 17.0 0.00 0.00 0.00 33 1008.4
20260507184003 72 236 5.0 15.0 0.00 0.00 0.00 35 1008.4
20260507183503 71 223 3.0 10.0 0.00 0.00 0.00 36 1008.3
20260507183004 70 243 5.0 12.0 0.00 0.00 0.00 38 1008.6
20260507182503 70 244 7.0 15.0 0.00 0.00 0.00 36 1008.6
20260507182003 70 237 6.0 15.0 0.00 0.00 0.00 34 1008.6
20260507181503 70 235 4.0 10.0 0.00 0.00 0.00 35 1008.7
20260507181003 69 226 5.0 12.0 0.00 0.00 0.00 35 1008.7
20260507180503 70 234 6.0 15.0 0.00 0.00 0.00 38 1008.8
20260507180003 70 250 6.0 15.0 0.00 0.00 0.00 39 1008.9
20260507175714 69 243 5.0 13.0 0.00 0.00 0.00 37 1008.8
20260507175213 70 243 6.0 12.0 0.00 0.00 0.00 35 1009.0
20260507174503 70 261 6.0 14.0 0.00 0.00 0.00 39 1009.1
20260507174003 69 244 6.0 16.0 0.00 0.00 0.00 36 1009.1
20260507173503 69 241 5.0 16.0 0.00 0.00 0.00 35 1009.3
20260507173004 69 254 6.0 18.0 0.00 0.00 0.00 36 1009.3
20260507172504 68 241 5.0 18.0 0.00 0.00 0.00 36 1009.3
20260507172212 68 231 4.0 10.0 0.00 0.00 0.00 36 1009.3
20260507171503 68 224 4.0 12.0 0.00 0.00 0.00 39 1009.5
20260507171003 68 222 6.0 12.0 0.00 0.00 0.00 41 1009.5
20260507170503 67 237 7.0 13.0 0.00 0.00 0.00 35 1009.6
20260507170214 67 243 6.0 13.0 0.00 0.00 0.00 36 1009.6
20260507165503 67 241 6.0 13.0 0.00 0.00 0.00 38 1009.5
20260507165003 66 237 5.0 13.0 0.00 0.00 0.00 37 1009.7
20260507164503 66 222 5.0 12.0 0.00 0.00 0.00 43 1009.7
20260507164003 66 221 5.0 12.0 0.00 0.00 0.00 39 1009.7
20260507163503 66 225 5.0 11.0 0.00 0.00 0.00 42 1009.8
20260507163003 65 216 4.0 11.0 0.00 0.00 0.00 41 1009.8
20260507162504 65 217 5.0 12.0 0.00 0.00 0.00 41 1009.9
20260507162003 64 226 5.0 12.0 0.00 0.00 0.00 39 1010.0
20260507161503 64 221 5.0 10.0 0.00 0.00 0.00 41 1010.0
20260507161003 64 224 5.0 12.0 0.00 0.00 0.00 47 1010.0
20260507160503 64 245 5.0 12.0 0.00 0.00 0.00 43 1010.1
20260507160214 63 239 5.0 10.0 0.00 0.00 0.00 48 1010.2
20260507155503 62 223 5.0 10.0 0.00 0.00 0.00 45 1010.3
20260507155214 62 229 5.0 10.0 0.00 0.00 0.00 47 1010.4
20260507154503 61 243 5.0 12.0 0.00 0.00 0.00 48 1010.6
20260507154003 61 246 6.0 12.0 0.00 0.00 0.00 50 1010.6